Time,TemperatureF,DewpointF,PressureIn,WindDirection,WindDirectionDegrees,WindSpeedMPH,WindSpeedGustMPH,Humidity,HourlyPrecipIn,Conditions,Clouds,dailyrainin,SoftwareType,DateUTC
2013-01-29 00:04:00,32.0,30.0,29.50,East,101,0.0,0.0,94,0.00,,,0.19,,2013-01-29 05:04:00,
2013-01-29 00:12:00,32.0,30.0,29.50,East,101,0.0,0.0,94,0.00,,,0.19,,2013-01-29 05:12:00,
2013-01-29 00:22:00,32.0,30.0,29.50,East,101,0.0,0.0,94,0.00,,,0.19,,2013-01-29 05:22:00,
2013-01-29 00:32:00,32.0,30.0,29.50,East,101,0.0,0.0,94,0.00,,,0.19,,2013-01-29 05:32:00,
2013-01-29 00:42:00,32.0,30.0,29.50,East,101,0.0,0.0,94,0.00,,,0.19,,2013-01-29 05:42:00,
2013-01-29 00:52:00,32.0,30.0,29.50,East,101,0.0,0.0,94,0.00,,,0.19,,2013-01-29 05:52:00,
2013-01-29 01:02:00,32.0,30.0,29.49,East,101,0.0,0.0,94,0.00,,,0.19,,2013-01-29 06:02:00,
2013-01-29 01:11:00,32.0,30.0,29.49,East,101,0.0,0.0,94,0.00,,,0.19,,2013-01-29 06:11:00,
2013-01-29 01:21:00,32.0,30.0,29.49,East,101,0.0,0.0,94,0.00,,,0.19,,2013-01-29 06:21:00,
2013-01-29 01:32:00,32.0,30.0,29.49,East,101,0.0,0.0,94,0.00,,,0.19,,2013-01-29 06:32:00,
2013-01-29 01:42:00,32.0,30.0,29.49,East,101,0.0,0.0,94,0.00,,,0.19,,2013-01-29 06:42:00,
2013-01-29 01:52:00,32.0,30.0,29.49,East,101,0.0,0.0,94,0.00,,,0.19,,2013-01-29 06:52:00,
2013-01-29 02:02:00,32.0,30.0,29.50,East,101,0.0,0.0,94,0.00,,,0.19,,2013-01-29 07:02:00,
2013-01-29 02:11:00,32.0,30.0,29.50,East,101,0.0,0.0,94,0.00,,,0.19,,2013-01-29 07:11:00,
2013-01-29 02:21:00,32.0,30.0,29.51,East,101,0.0,0.0,94,0.00,,,0.19,,2013-01-29 07:21:00,
2013-01-29 02:32:00,32.0,30.0,29.51,East,101,0.0,0.0,94,0.00,,,0.19,,2013-01-29 07:32:00,
2013-01-29 02:42:00,32.0,30.0,29.51,East,101,0.0,0.0,94,0.00,,,0.19,,2013-01-29 07:42:00,
2013-01-29 02:52:00,33.0,31.0,29.51,East,101,0.0,0.0,94,0.00,,,0.19,,2013-01-29 07:52:00,
2013-01-29 03:02:00,33.0,31.0,29.52,East,101,0.0,0.0,94,0.00,,,0.19,,2013-01-29 08:02:00,
2013-01-29 03:11:00,33.0,31.0,29.52,East,101,0.0,0.0,94,0.00,,,0.19,,2013-01-29 08:11:00,
2013-01-29 03:21:00,33.0,31.0,29.52,East,101,0.0,0.0,94,0.00,,,0.19,,2013-01-29 08:21:00,
2013-01-29 03:32:00,33.0,31.0,29.52,East,101,0.0,0.0,94,0.00,,,0.19,,2013-01-29 08:32:00,
2013-01-29 03:42:00,33.0,31.0,29.52,East,101,0.0,0.0,94,0.00,,,0.19,,2013-01-29 08:42:00,
2013-01-29 03:52:00,33.0,31.0,29.52,East,101,0.0,2.0,94,0.00,,,0.19,,2013-01-29 08:52:00,
2013-01-29 04:02:00,34.0,32.0,29.52,East,101,0.0,2.0,94,0.00,,,0.19,,2013-01-29 09:02:00,
2013-01-29 04:11:00,34.0,32.0,29.52,East,101,0.0,2.0,94,0.00,,,0.19,,2013-01-29 09:11:00,
2013-01-29 04:21:00,34.0,32.0,29.52,East,101,0.0,0.0,94,0.00,,,0.19,,2013-01-29 09:21:00,
2013-01-29 04:32:00,34.0,32.0,29.52,East,101,0.0,2.0,94,0.00,,,0.19,,2013-01-29 09:32:00,
2013-01-29 04:42:00,34.0,32.0,29.52,East,101,0.0,2.0,94,0.00,,,0.19,,2013-01-29 09:42:00,
2013-01-29 04:51:00,36.0,35.0,29.53,East,99,0.0,3.0,95,0.00,,,0.19,,2013-01-29 09:51:00,
2013-01-29 05:02:00,36.0,35.0,29.53,WNW,288,0.0,4.0,95,0.00,,,0.19,,2013-01-29 10:02:00,
2013-01-29 05:11:00,36.0,35.0,29.53,WNW,288,0.0,4.0,95,0.00,,,0.19,,2013-01-29 10:11:00,
2013-01-29 05:21:00,37.0,36.0,29.54,West,281,1.0,3.0,95,0.00,,,0.19,,2013-01-29 10:21:00,
2013-01-29 05:32:00,37.0,36.0,29.54,West,281,2.0,3.0,95,0.00,,,0.19,,2013-01-29 10:32:00,
2013-01-29 05:42:00,37.0,36.0,29.54,West,281,2.0,3.0,95,0.00,,,0.19,,2013-01-29 10:42:00,
2013-01-29 05:52:00,37.0,36.0,29.55,WNW,290,2.0,4.0,95,0.00,,,0.19,,2013-01-29 10:52:00,
2013-01-29 06:02:00,37.0,35.0,29.56,WNW,284,2.0,4.0,94,0.00,,,0.19,,2013-01-29 11:02:00,
2013-01-29 06:12:00,37.0,35.0,29.56,WNW,284,2.0,4.0,94,0.00,,,0.19,,2013-01-29 11:12:00,
2013-01-29 06:22:00,37.0,35.0,29.56,WNW,287,2.0,4.0,94,0.00,,,0.19,,2013-01-29 11:22:00,
2013-01-29 06:32:00,37.0,35.0,29.57,WNW,284,2.0,4.0,94,0.00,,,0.19,,2013-01-29 11:32:00,
2013-01-29 06:42:00,37.0,35.0,29.57,WNW,284,2.0,4.0,94,0.00,,,0.19,,2013-01-29 11:42:00,
2013-01-29 06:52:00,37.0,35.0,29.57,WNW,285,2.0,4.0,94,0.00,,,0.19,,2013-01-29 11:52:00,
2013-01-29 07:03:00,37.0,36.0,29.58,WNW,284,1.0,4.0,95,0.00,,,0.19,,2013-01-29 12:03:00,
2013-01-29 07:12:00,37.0,36.0,29.58,WNW,284,1.0,4.0,95,0.00,,,0.19,,2013-01-29 12:12:00,
2013-01-29 07:22:00,38.0,36.0,29.58,West,281,1.0,3.0,94,0.00,,,0.19,,2013-01-29 12:22:00,
2013-01-29 07:33:00,38.0,37.0,29.59,WNW,283,1.0,4.0,95,0.00,,,0.19,,2013-01-29 12:33:00,
2013-01-29 07:43:00,38.0,37.0,29.59,WNW,283,1.0,4.0,95,0.00,,,0.19,,2013-01-29 12:43:00,
2013-01-29 07:52:00,38.0,36.0,29.59,WNW,282,0.0,3.0,94,0.00,,,0.19,,2013-01-29 12:52:00,
2013-01-29 08:02:00,38.0,37.0,29.60,WNW,282,0.0,3.0,95,0.00,,,0.19,,2013-01-29 13:02:00,
2013-01-29 08:12:00,38.0,37.0,29.60,WNW,282,0.0,3.0,95,0.00,,,0.19,,2013-01-29 13:12:00,
2013-01-29 08:22:00,39.0,37.0,29.60,WNW,290,0.0,3.0,94,0.00,,,0.19,,2013-01-29 13:22:00,
2013-01-29 08:32:00,39.0,37.0,29.60,WNW,287,0.0,3.0,94,0.00,,,0.19,,2013-01-29 13:32:00,
2013-01-29 08:43:00,39.0,37.0,29.60,WNW,287,0.0,3.0,94,0.00,,,0.19,,2013-01-29 13:43:00,
2013-01-29 08:52:00,39.0,37.0,29.61,WNW,287,0.0,2.0,94,0.00,,,0.19,,2013-01-29 13:52:00,
2013-01-29 09:02:00,39.0,37.0,29.61,WNW,286,0.0,2.0,93,0.00,,,0.19,,2013-01-29 14:02:00,
2013-01-29 09:12:00,39.0,37.0,29.61,WNW,286,0.0,2.0,93,0.00,,,0.19,,2013-01-29 14:12:00,
2013-01-29 09:22:00,39.0,37.0,29.61,WNW,286,0.0,2.0,93,0.00,,,0.19,,2013-01-29 14:22:00,
2013-01-29 09:33:00,41.0,39.0,29.61,West,281,0.0,1.0,92,0.00,,,0.19,,2013-01-29 14:33:00,
2013-01-29 09:43:00,41.0,39.0,29.61,West,281,0.0,1.0,92,0.00,,,0.19,,2013-01-29 14:43:00,
2013-01-29 09:53:00,42.0,40.0,29.63,West,280,0.0,2.0,91,0.00,,,0.19,,2013-01-29 14:53:00,
2013-01-29 10:02:00,42.0,39.0,29.63,West,265,0.0,1.0,88,0.00,,,0.19,,2013-01-29 15:02:00,
2013-01-29 10:12:00,42.0,39.0,29.63,West,265,0.0,1.0,88,0.00,,,0.19,,2013-01-29 15:12:00,
2013-01-29 10:22:00,38.0,35.0,29.63,ESE,113,1.0,4.0,90,0.00,,,0.19,,2013-01-29 15:22:00,
2013-01-29 10:33:00,37.0,35.0,29.64,South,178,0.0,3.0,92,0.00,,,0.19,,2013-01-29 15:33:00,
2013-01-29 10:43:00,37.0,35.0,29.64,South,178,0.0,3.0,92,0.00,,,0.19,,2013-01-29 15:43:00,
2013-01-29 10:53:00,37.0,35.0,29.65,East,80,0.0,2.0,93,0.00,,,0.19,,2013-01-29 15:53:00,
2013-01-29 11:03:00,36.0,34.0,29.65,SE,142,0.0,3.0,93,0.00,,,0.19,,2013-01-29 16:03:00,
2013-01-29 11:12:00,36.0,34.0,29.65,SE,142,0.0,3.0,93,0.00,,,0.19,,2013-01-29 16:12:00,
2013-01-29 11:23:00,36.0,34.0,29.65,East,86,0.0,4.0,94,0.00,,,0.19,,2013-01-29 16:23:00,
2013-01-29 11:33:00,36.0,34.0,29.65,SE,138,0.0,3.0,94,0.00,,,0.19,,2013-01-29 16:33:00,
2013-01-29 11:43:00,36.0,34.0,29.65,SE,138,0.0,3.0,94,0.00,,,0.19,,2013-01-29 16:43:00,
2013-01-29 11:52:00,35.0,33.0,29.64,SSE,150,1.0,4.0,94,0.00,,,0.19,,2013-01-29 16:52:00,
2013-01-29 12:03:00,36.0,35.0,29.64,South,171,0.0,4.0,95,0.00,,,0.19,,2013-01-29 17:03:00,
2013-01-29 12:12:00,36.0,35.0,29.64,South,171,0.0,4.0,95,0.00,,,0.19,,2013-01-29 17:12:00,
2013-01-29 12:22:00,36.0,35.0,29.63,ESE,118,0.0,3.0,95,0.00,,,0.19,,2013-01-29 17:22:00,
2013-01-29 12:33:00,37.0,35.0,29.62,ESE,103,0.0,5.0,93,0.00,,,0.18,,2013-01-29 17:33:00,
2013-01-29 12:42:00,37.0,35.0,29.62,ESE,103,0.0,5.0,93,0.00,,,0.18,,2013-01-29 17:42:00,
2013-01-29 12:52:00,38.0,36.0,29.62,East,80,1.0,4.0,91,0.00,,,0.18,,2013-01-29 17:52:00,
2013-01-29 13:04:00,38.0,35.0,29.62,ESE,123,0.0,4.0,90,0.00,,,0.18,,2013-01-29 18:04:00,
2013-01-29 13:13:00,38.0,35.0,29.62,ESE,123,0.0,4.0,90,0.00,,,0.18,,2013-01-29 18:13:00,
2013-01-29 13:22:00,39.0,36.0,29.62,ENE,76,1.0,4.0,89,0.00,,,0.18,,2013-01-29 18:22:00,
2013-01-29 13:33:00,39.0,36.0,29.61,SSE,154,0.0,3.0,88,0.00,,,0.14,,2013-01-29 18:33:00,
2013-01-29 13:42:00,39.0,36.0,29.61,SSE,154,0.0,3.0,88,0.00,,,0.14,,2013-01-29 18:42:00,
2013-01-29 13:52:00,39.0,36.0,29.60,ENE,66,1.0,5.0,88,0.00,,,0.14,,2013-01-29 18:52:00,
2013-01-29 14:03:00,39.0,36.0,29.61,SSE,161,1.0,5.0,89,0.00,,,0.14,,2013-01-29 19:03:00,
2013-01-29 14:12:00,39.0,36.0,29.61,SSE,161,1.0,5.0,89,0.00,,,0.14,,2013-01-29 19:12:00,
2013-01-29 14:23:00,38.0,35.0,29.61,ESE,119,1.0,4.0,89,0.00,,,0.14,,2013-01-29 19:23:00,
2013-01-29 14:33:00,38.0,35.0,29.61,East,91,1.0,5.0,89,0.00,,,0.12,,2013-01-29 19:33:00,
2013-01-29 14:42:00,38.0,35.0,29.61,East,91,1.0,5.0,89,0.00,,,0.12,,2013-01-29 19:42:00,
2013-01-29 14:52:00,37.0,34.0,29.61,ESE,104,1.0,6.0,89,0.00,,,0.12,,2013-01-29 19:52:00,
2013-01-29 15:03:00,37.0,34.0,29.62,SSE,162,1.0,5.0,90,0.00,,,0.12,,2013-01-29 20:03:00,
2013-01-29 15:13:00,37.0,34.0,29.62,SSE,162,1.0,5.0,90,0.00,,,0.12,,2013-01-29 20:13:00,
2013-01-29 15:22:00,37.0,35.0,29.62,NNE,33,0.0,3.0,91,0.00,,,0.12,,2013-01-29 20:22:00,
2013-01-29 15:33:00,37.0,35.0,29.62,ENE,65,1.0,3.0,91,0.00,,,0.09,,2013-01-29 20:33:00,
2013-01-29 15:42:00,37.0,35.0,29.62,ENE,65,1.0,3.0,91,0.00,,,0.09,,2013-01-29 20:42:00,
2013-01-29 15:53:00,37.0,35.0,29.61,ENE,64,1.0,5.0,91,0.00,,,0.09,,2013-01-29 20:53:00,
2013-01-29 16:03:00,37.0,35.0,29.61,ENE,64,1.0,5.0,91,0.00,,,0.09,,2013-01-29 21:03:00,
2013-01-29 16:12:00,37.0,35.0,29.61,ENE,64,1.0,5.0,91,0.00,,,0.09,,2013-01-29 21:12:00,
2013-01-29 16:22:00,37.0,35.0,29.62,NE,47,0.0,2.0,91,0.00,,,0.09,,2013-01-29 21:22:00,
2013-01-29 16:34:00,37.0,35.0,29.62,SSW,203,0.0,4.0,91,0.00,,,0.00,,2013-01-29 21:34:00,
2013-01-29 16:42:00,37.0,35.0,29.62,SSW,203,0.0,4.0,91,0.00,,,0.00,,2013-01-29 21:42:00,
2013-01-29 16:52:00,37.0,35.0,29.63,SE,137,0.0,2.0,91,0.00,,,0.00,,2013-01-29 21:52:00,
2013-01-29 17:03:00,36.0,34.0,29.63,SSE,152,0.0,3.0,91,0.00,,,0.00,,2013-01-29 22:03:00,
2013-01-29 17:12:00,36.0,34.0,29.63,SSE,152,0.0,3.0,91,0.00,,,0.00,,2013-01-29 22:12:00,
2013-01-29 17:22:00,36.0,34.0,29.65,ENE,74,0.0,2.0,91,0.00,,,0.00,,2013-01-29 22:22:00,
2013-01-29 17:33:00,36.0,34.0,29.65,ESE,111,1.0,4.0,91,0.00,,,0.00,,2013-01-29 22:33:00,
2013-01-29 17:42:00,36.0,34.0,29.65,ESE,111,1.0,4.0,91,0.00,,,0.00,,2013-01-29 22:42:00,
2013-01-29 17:52:00,35.0,33.0,29.65,ENE,78,0.0,3.0,91,0.00,,,0.00,,2013-01-29 22:52:00,
2013-01-29 18:02:00,35.0,33.0,29.65,NE,48,0.0,3.0,91,0.00,,,0.00,,2013-01-29 23:02:00,
2013-01-29 18:12:00,35.0,33.0,29.65,NE,48,0.0,3.0,91,0.00,,,0.00,,2013-01-29 23:12:00,
2013-01-29 18:23:00,35.0,33.0,29.65,ENE,68,0.0,3.0,92,0.00,,,0.00,,2013-01-29 23:23:00,
2013-01-29 18:33:00,35.0,33.0,29.63,SE,127,0.0,5.0,93,0.02,,,0.02,,2013-01-29 23:33:00,
2013-01-29 18:42:00,35.0,33.0,29.63,SE,127,0.0,5.0,93,0.02,,,0.02,,2013-01-29 23:42:00,
2013-01-29 18:52:00,35.0,33.0,29.63,SSE,157,2.0,7.0,93,0.03,,,0.03,,2013-01-29 23:52:00,
2013-01-29 19:03:00,35.0,33.0,29.63,East,86,0.0,4.0,93,0.05,,,0.05,,2013-01-30 00:03:00,
2013-01-29 19:12:00,35.0,33.0,29.63,East,86,0.0,4.0,93,0.05,,,0.05,,2013-01-30 00:12:00,
2013-01-29 19:22:00,35.0,33.0,29.62,SSE,160,0.0,2.0,94,0.05,,,0.05,,2013-01-30 00:22:00,
2013-01-29 19:32:00,35.0,33.0,29.63,East,95,0.0,3.0,94,0.03,,,0.05,,2013-01-30 00:32:00,
2013-01-29 19:43:00,35.0,33.0,29.63,East,95,0.0,3.0,94,0.03,,,0.05,,2013-01-30 00:43:00,
2013-01-29 19:52:00,35.0,33.0,29.64,SSE,151,0.0,1.0,94,0.02,,,0.05,,2013-01-30 00:52:00,
2013-01-29 20:02:00,35.0,33.0,29.64,NE,38,0.0,0.0,94,0.00,,,0.05,,2013-01-30 01:02:00,
2013-01-29 20:12:00,35.0,33.0,29.64,NE,38,0.0,0.0,94,0.00,,,0.05,,2013-01-30 01:12:00,
2013-01-29 20:22:00,35.0,33.0,29.63,NE,39,0.0,1.0,94,0.00,,,0.05,,2013-01-30 01:22:00,
2013-01-29 20:32:00,35.0,33.0,29.64,ESE,113,0.0,2.0,94,0.01,,,0.06,,2013-01-30 01:32:00,
2013-01-29 20:42:00,35.0,33.0,29.64,ESE,113,0.0,2.0,94,0.01,,,0.06,,2013-01-30 01:42:00,
2013-01-29 20:52:00,35.0,33.0,29.64,SE,130,0.0,2.0,94,0.01,,,0.06,,2013-01-30 01:52:00,
2013-01-29 21:02:00,35.0,33.0,29.63,SE,133,0.0,1.0,94,0.01,,,0.06,,2013-01-30 02:02:00,
2013-01-29 21:12:00,35.0,34.0,29.63,SE,133,0.0,1.0,95,0.01,,,0.06,,2013-01-30 02:12:00,
2013-01-29 21:22:00,35.0,34.0,29.63,SE,133,0.0,1.0,95,0.01,,,0.06,,2013-01-30 02:22:00,
2013-01-29 21:33:00,35.0,34.0,29.63,SE,129,0.0,2.0,95,0.00,,,0.06,,2013-01-30 02:33:00,
2013-01-29 21:42:00,35.0,34.0,29.63,SE,129,0.0,2.0,95,0.00,,,0.06,,2013-01-30 02:42:00,
2013-01-29 21:52:00,35.0,34.0,29.62,NE,49,0.0,2.0,95,0.00,,,0.06,,2013-01-30 02:52:00,
2013-01-29 22:03:00,35.0,34.0,29.62,ESE,109,0.0,2.0,95,0.00,,,0.06,,2013-01-30 03:03:00,
2013-01-29 22:12:00,35.0,34.0,29.62,ESE,109,0.0,2.0,95,0.00,,,0.06,,2013-01-30 03:12:00,
2013-01-29 22:22:00,35.0,34.0,29.62,South,169,0.0,2.0,95,0.00,,,0.06,,2013-01-30 03:22:00,
2013-01-29 22:32:00,36.0,35.0,29.61,ENE,69,0.0,2.0,95,0.00,,,0.06,,2013-01-30 03:32:00,
2013-01-29 22:42:00,36.0,35.0,29.61,ENE,69,0.0,2.0,95,0.00,,,0.06,,2013-01-30 03:42:00,
2013-01-29 22:52:00,35.0,34.0,29.61,East,82,0.0,0.0,95,0.00,,,0.06,,2013-01-30 03:52:00,
2013-01-29 23:02:00,36.0,35.0,29.62,ENE,72,0.0,0.0,95,0.00,,,0.06,,2013-01-30 04:02:00,
2013-01-29 23:12:00,36.0,35.0,29.62,ENE,72,0.0,0.0,95,0.00,,,0.06,,2013-01-30 04:12:00,
2013-01-29 23:22:00,36.0,35.0,29.62,ESE,103,0.0,0.0,95,0.00,,,0.06,,2013-01-30 04:22:00,
2013-01-29 23:32:00,36.0,35.0,29.62,ESE,103,0.0,0.0,95,0.00,,,0.06,,2013-01-30 04:32:00,
2013-01-29 23:42:00,36.0,35.0,29.62,ESE,103,0.0,0.0,95,0.00,,,0.06,,2013-01-30 04:42:00,
2013-01-29 23:52:00,36.0,35.0,29.62,ESE,103,0.0,0.0,95,0.00,,,0.06,,2013-01-30 04:52:00,